[[{"header":{"parameterUnit":"m.s-1","parameterCategory":1,"la1":30.2991,"la2":30.254,"lo1":-89.0895,"lo2":-89.0444,"dy":0.0017,"dx":0.0017,"nx":28,"ny":28,"refTime":"2026-03-04T03:00:00:Z","depth":0,"parameterNumber":2,"parameterNumberName":"U-component_of_WINDS"},"data":[0,0,0,0,0,0,0,0,0,0,0,0,0,0,0,0,0,0,0,0,0,0,0,0,0,0,0,0,0,0,0,0,0,0,0,0,0,0,0,0,0,0,0,0,0,0,0,0,0,0,0,0,0,0,0,0,0,0,-4.1025,-4.1025,0,-4.1033,-4.1033,-4.1033,-4.0938,-4.0935,-4.0933,-4.093,-4.0938,-4.0941,-4.0943,0,0,0,0,0,0,0,0,0,0,0,0,0,-4.0927,-4.0929,-4.1025,-4.1025,-4.1025,-4.1033,-4.1033,-4.1033,-4.0938,-4.0935,-4.0932,-4.0929,-4.0937,-4.094,-4.0944,0,0,0,0,0,0,0,0,0,0,0,0,0,-4.0956,-4.093,-4.1025,-4.0979,-4.0974,-4.1033,-4.1033,-4.1033,-4.0939,-4.0935,-4.0931,-4.0927,-4.0936,-4.094,-4.0944,-4.1047,0,0,-4.0956,-4.0958,0,0,0,0,0,0,0,0,-4.0954,-4.096,-4.0985,-4.0982,-4.0977,-4.098,-4.1002,-4.1038,-4.094,-4.0952,-4.093,-4.0926,-4.0955,-4.0958,-4.0968,-4.1047,-4.1048,-4.0957,-4.0959,-4.0961,-4.0962,0,0,0,0,0,0,0,-4.0953,-4.0959,-4.1028,-4.0986,-4.0981,-4.0958,-4.0957,-4.1008,-4.0976,-4.0951,-4.0944,-4.0947,-4.0952,-4.0964,-4.0967,-4.1048,-4.0956,-4.096,-4.0962,-4.0964,-4.1214,-4.1218,0,0,0,0,0,0,-4.0957,-4.0958,-4.1028,-4.1028,-4.0956,-4.0963,-4.0962,-4.0983,-4.0975,-4.097,-4.095,-4.0942,-4.0959,-4.0963,-4.0967,-4.1087,-4.0961,-4.0964,-4.0967,-4.121,-4.1215,-4.122,0,0,0,0,0,0,-4.0955,-4.0964,-4.1027,-4.0991,-4.0997,-4.0968,-4.0993,-4.0986,-4.0997,-4.0974,-4.0968,-4.0968,-4.0956,-4.0961,-4.1028,-4.1086,-4.0966,-4.097,-4.1205,-4.1211,-4.1217,-4.1329,0,0,0,0,0,0,-4.0953,-4.0964,-4.1002,-4.0993,-4.1,-4.1088,-4.0996,-4.0989,-4.1004,-4.0994,-4.0989,-4.0984,-4.0954,-4.1023,-4.1032,-4.109,-4.0973,-4.1199,-4.1208,-4.1215,-4.132,-4.1338,-4.1354,0,0,0,0,0,-4.095,-4.1033,-4.1005,-4.1014,-4.1047,-4.1092,-4.1096,-4.1059,-4.1009,-4.1048,-4.1034,-4.0985,-4.1079,-4.103,-4.104,-4.11,-4.1195,-4.1205,-4.1215,-4.1312,-4.1335,-4.1354,0,0,0,0,0,0,-4.1049,-4.1031,-4.0999,-4.1082,-4.109,-4.1076,-4.1123,-4.1084,-4.1105,-4.1094,-4.1048,-4.1047,-4.1122,-4.1117,-4.1064,-4.12,-4.1128,-4.1141,-4.1199,-4.1221,-4.1238,-4.1236,-4.0976,0,0,0,0,0,-4.1081,-4.1119,-4.1101,-4.1176,-4.1181,-4.1152,-4.117,-4.1141,-4.1147,-4.1149,-4.1139,-4.1147,-4.1178,-4.1199,-4.1227,-4.132,-4.1317,-4.1366,-4.1383,-4.1397,-4.1407,-4.1457,-4.1479,-4.1251,-4.1251,-4.1251,0,0,-4.1146,-4.1141,-4.1168,-4.1196,-4.1198,-4.1238,-4.1155,-4.1201,-4.123,-4.1156,-4.1218,-4.1212,-4.1217,-4.1298,-4.1333,-4.1296,-4.147,-4.1409,-4.1421,-4.1423,-4.1469,-4.1491,-4.151,-4.1257,-4.1256,-4.1255,0,0,-4.1286,-4.1287,-4.1349,-4.1354,-4.1359,-4.1339,-4.1355,-4.1348,-4.1341,-4.1403,-4.1348,-4.1383,-4.1438,-4.1444,-4.1454,-4.16,-4.1556,-4.1611,-4.17,-4.1749,-4.1767,-4.1782,-4.1834,-4.1854,-4.1622,-4.1622,-4.1622,0,-4.1367,-4.1426,-4.1386,-4.1437,-4.1451,-4.1387,-4.145,-4.1456,-4.147,-4.1482,-4.1441,-4.151,-4.1509,-4.159,-4.1626,-4.1637,-4.1653,-4.161,-4.1767,-4.1783,-4.1797,-4.1846,-4.1865,-4.1629,-4.1628,-4.1627,-4.1626,0,-4.1525,-4.1567,-4.1617,-4.1633,-4.1653,-4.171,-4.1679,-4.1705,-4.1675,-4.166,-4.1725,-4.1722,-4.1748,-4.1766,-4.1737,-4.1844,-4.1822,-4.1776,-4.1702,-4.1826,-4.1871,-4.1889,-4.1638,-4.1636,-4.1634,-4.1632,0,0,-4.1724,-4.172,-4.1739,-4.1746,-4.1749,-4.178,-4.1835,-4.1861,-4.1884,-4.1897,-4.1941,-4.1991,-4.1948,-4.196,-4.1932,-4.1976,-4.2092,-4.1924,-4.1923,-4.1955,-4.221,-4.2244,-4.2267,-4.2064,-4.2067,-4.207,-4.2209,0,-4.186,-4.1953,-4.1921,-4.2015,-4.2054,-4.1995,-4.2043,-4.205,-4.2039,-4.207,-4.2057,-4.2093,-4.2034,-4.2041,-4.2082,-4.2069,-4.2142,-4.2059,-4.2104,-4.2106,-4.2103,-4.229,-4.2326,-4.2458,-4.2227,-4.223,-4.2232,0,-4.203,-4.2051,-4.215,-4.2148,-4.2163,-4.2206,-4.2229,-4.226,-4.2267,-4.2256,-4.2271,-4.2234,-4.2288,-4.2217,-4.2291,-4.2235,-4.2252,-4.2249,-4.2253,-4.2255,-4.2176,-4.2296,-4.2499,-4.2518,-4.226,-4.2257,-4.2255,0,-4.2166,-4.2219,-4.2285,-4.2293,-4.2292,-4.2324,-4.2325,-4.2328,-4.2347,-4.2367,-4.2379,-4.2405,-4.2419,-4.2441,-4.2412,-4.2363,-4.2491,-4.2417,-4.2483,-4.2484,-4.251,-4.2509,-4.2718,-4.2524,-4.2524,-4.2523,-4.2523,0,-4.232,-4.2382,-4.2346,-4.2386,-4.2456,-4.2419,-4.2488,-4.2483,-4.2487,-4.2526,-4.2477,-4.2515,-4.2476,-4.251,-4.2488,-4.2553,-4.256,-4.2552,-4.2545,-4.2556,-4.2557,-4.2565,-4.2555,-4.2529,-4.2527,-4.2526,-4.2526,0,-4.2481,-4.2459,-4.2528,-4.2522,-4.2523,-4.2574,-4.2569,-4.2606,-4.2593,-4.2643,-4.2652,-4.2631,-4.2669,-4.2643,-4.2681,-4.2666,-4.2751,-4.2732,-4.2749,-4.2743,-4.281,-4.2804,-4.3031,-4.3059,-4.2848,-4.285,-4.2852,0,-4.258,-4.2627,-4.2628,-4.2651,-4.2655,-4.2693,-4.2712,-4.2679,-4.2701,-4.2715,-4.2751,-4.2785,-4.281,-4.2874,-4.2862,-4.2891,-4.2871,-4.2949,-4.2875,-4.2885,-4.2872,-4.2869,-4.2873,-4.2963,-4.2966,-4.2968,-4.297,0,-4.2758,-4.2746,-4.2776,-4.2803,-4.2828,-4.2848,-4.2863,-4.2885,-4.2852,-4.2879,-4.2918,-4.2938,-4.2978,-4.3012,-4.3037,-4.3038,-4.2999,-4.2994,-4.301,-4.302,-4.3028,-4.3024,-4.2788,-4.2988,-4.2986,-4.2985,-4.2984,-4.2983,-4.289,-4.293,-4.2937,-4.2973,-4.2982,-4.2999,-4.3034,-4.3026,-4.3058,-4.3088,-4.3067,-4.3113,-4.3121,-4.315,-4.3157,-4.3193,-4.3161,-4.3185,-4.3191,-4.3197,-4.3206,-4.3024,-4.3197,-4.3197,-4.3196,-4.3196,-4.3195,0,-4.3065,-4.3068,-4.3101,-4.3126,-4.3154,-4.3117,-4.3133,-4.3159,-4.32,-4.3212,-4.3239,-4.3284,-4.3318,-4.331,-4.334,-4.3371,-4.3354,-4.338,-4.3376,-4.3377,-4.3233,-4.3215,-4.3393,-4.3393,-4.3393,-4.3393,-4.3393,-4.3393,-4.3159,-4.3225,-4.3214,-4.3284,-4.3286,-4.3331,-4.3344,-4.3359,-4.3368,-4.3421,-4.345,-4.3445,-4.3449,-4.348,-4.3509,-4.3506,-4.3519,-4.3552,-4.3542,-4.3407,-4.3387,-4.3369,-4.3352,-4.3556,-4.3556,-4.3683,-4.3685,-4.3686]},{"header":{"parameterUnit":"m.s-1","parameterCategory":1,"la1":30.2991,"la2":30.254,"lo1":-89.0895,"lo2":-89.0444,"dy":0.0017,"dx":0.0017,"nx":28,"ny":28,"refTime":"2026-03-04T03:00:00:Z","depth":0,"parameterNumber":3,"parameterNumberName":"V-component_of_WINDS"},"data":[0,0,0,0,0,0,0,0,0,0,0,0,0,0,0,0,0,0,0,0,0,0,0,0,0,0,0,0,0,0,0,0,0,0,0,0,0,0,0,0,0,0,0,0,0,0,0,0,0,0,0,0,0,0,0,0,0,0,0.4581,0.4582,0,0.4646,0.4647,0.4648,0.4733,0.4734,0.4736,0.4737,0.4799,0.4799,0.48,0,0,0,0,0,0,0,0,0,0,0,0,0,0.4528,0.4528,0.4581,0.4582,0.4583,0.4646,0.4647,0.4648,0.4733,0.4734,0.4736,0.4738,0.4799,0.4799,0.48,0,0,0,0,0,0,0,0,0,0,0,0,0,0.4567,0.4528,0.4581,0.4633,0.4638,0.4646,0.4647,0.4648,0.4732,0.4734,0.4737,0.4738,0.4799,0.4799,0.48,0.4761,0,0,0.4801,0.4802,0,0,0,0,0,0,0,0,0.4565,0.4569,0.4625,0.4629,0.4635,0.4684,0.4651,0.4686,0.4732,0.4696,0.4737,0.474,0.4759,0.4763,0.477,0.4764,0.4767,0.4802,0.4802,0.4802,0.4802,0,0,0,0,0,0,0,0.4562,0.4567,0.4607,0.4625,0.4632,0.4652,0.466,0.4658,0.4715,0.47,0.4706,0.4713,0.4762,0.4769,0.4772,0.4767,0.4802,0.4802,0.4802,0.4803,0.4734,0.4732,0,0,0,0,0,0,0.4552,0.4564,0.4605,0.4609,0.4605,0.4651,0.466,0.4666,0.4715,0.4725,0.4711,0.4717,0.4768,0.4772,0.4775,0.4733,0.4802,0.4803,0.4803,0.4736,0.4733,0.4731,0,0,0,0,0,0,0.4551,0.4555,0.4602,0.4588,0.4596,0.465,0.4656,0.4666,0.4674,0.4724,0.4734,0.4708,0.4769,0.4774,0.4764,0.4737,0.4803,0.4803,0.4738,0.4735,0.4732,0.4649,0,0,0,0,0,0,0.4549,0.4554,0.454,0.4587,0.4596,0.4591,0.4654,0.4666,0.4675,0.4683,0.4724,0.4733,0.4771,0.4763,0.4765,0.4739,0.4804,0.4741,0.4737,0.4733,0.4655,0.4644,0.4634,0,0,0,0,0,0.4547,0.4513,0.4539,0.4544,0.4581,0.459,0.4595,0.4641,0.4672,0.4659,0.4691,0.4731,0.4739,0.4761,0.4764,0.4737,0.4743,0.4738,0.4733,0.4659,0.4646,0.4634,0,0,0,0,0,0,0.4459,0.452,0.455,0.4531,0.4555,0.4604,0.4588,0.4625,0.464,0.4646,0.4702,0.4711,0.4694,0.4715,0.4738,0.4703,0.4747,0.4743,0.469,0.4678,0.4667,0.4663,0.4804,0,0,0,0,0,0.4438,0.4442,0.4494,0.4472,0.4483,0.4533,0.4539,0.4573,0.46,0.461,0.4641,0.4664,0.4672,0.4676,0.4686,0.4658,0.4669,0.4641,0.4631,0.4622,0.4618,0.4605,0.4594,0.4715,0.4715,0.4715,0,0,0.4394,0.4428,0.4426,0.4456,0.4478,0.448,0.4541,0.454,0.4542,0.4609,0.4603,0.4626,0.4656,0.4637,0.463,0.4654,0.4587,0.4616,0.4609,0.4609,0.4599,0.4588,0.4577,0.4712,0.4712,0.4713,0,0,0.4314,0.434,0.4325,0.4347,0.4381,0.4416,0.4412,0.4456,0.4475,0.447,0.4521,0.4523,0.4535,0.4555,0.4566,0.4495,0.4533,0.4497,0.4443,0.443,0.4421,0.4412,0.4388,0.4378,0.4492,0.4492,0.4492,0,0.4254,0.426,0.4313,0.4309,0.4321,0.4384,0.4369,0.4387,0.4422,0.4428,0.4454,0.4472,0.4496,0.4484,0.4467,0.4473,0.4471,0.4492,0.4418,0.441,0.4403,0.438,0.4371,0.4487,0.4488,0.4488,0.4489,0,0.4185,0.4189,0.4172,0.4207,0.4217,0.4207,0.4257,0.4261,0.4294,0.4325,0.4319,0.4351,0.4369,0.4368,0.44,0.436,0.4374,0.4408,0.4454,0.4386,0.4366,0.4357,0.4481,0.4482,0.4484,0.4485,0,0,0.4051,0.4117,0.411,0.4127,0.417,0.4173,0.4166,0.4186,0.4188,0.421,0.4205,0.4215,0.4248,0.4261,0.4295,0.4284,0.4227,0.432,0.4322,0.4302,0.4185,0.4159,0.4148,0.4252,0.4251,0.425,0.4183,0,0.398,0.3974,0.4022,0.4003,0.4007,0.4067,0.4062,0.4087,0.4116,0.4123,0.4154,0.4161,0.4203,0.4211,0.4203,0.4235,0.4204,0.4241,0.4248,0.4248,0.4239,0.4138,0.411,0.4045,0.4175,0.4174,0.4173,0,0.3896,0.3916,0.3897,0.3943,0.3946,0.394,0.3963,0.3969,0.3999,0.4021,0.4036,0.4076,0.4072,0.4116,0.4111,0.4135,0.4141,0.4157,0.4156,0.4158,0.4206,0.4137,0.4026,0.4016,0.4161,0.4162,0.4163,0,0.3801,0.3822,0.3815,0.3827,0.388,0.3875,0.3896,0.3928,0.3937,0.3956,0.3963,0.398,0.399,0.4002,0.4046,0.4073,0.4036,0.4083,0.4054,0.4052,0.4043,0.4043,0.3931,0.4046,0.4046,0.4046,0.4046,0,0.3716,0.3702,0.3773,0.3768,0.3755,0.381,0.3795,0.3822,0.385,0.3851,0.3904,0.3904,0.3962,0.3968,0.4002,0.3993,0.3996,0.4014,0.4023,0.4009,0.4007,0.4013,0.4019,0.4044,0.4044,0.4045,0.4045,0,0.3607,0.3654,0.365,0.3701,0.3713,0.3701,0.3745,0.3742,0.3775,0.3775,0.3779,0.383,0.3839,0.3885,0.3904,0.3927,0.3907,0.3925,0.3897,0.3903,0.3871,0.3874,0.376,0.3748,0.387,0.3869,0.3868,0,0.355,0.3542,0.3592,0.3598,0.3618,0.3625,0.3636,0.3689,0.3697,0.3732,0.3724,0.3739,0.3753,0.3766,0.3804,0.3819,0.3838,0.3798,0.3841,0.3828,0.3838,0.3838,0.3838,0.3788,0.3786,0.3785,0.3784,0,0.3444,0.3468,0.3482,0.3504,0.3515,0.3534,0.3556,0.3557,0.3617,0.3623,0.3635,0.3646,0.3668,0.3681,0.3703,0.3724,0.3764,0.377,0.3764,0.375,0.3734,0.3743,0.3872,0.3772,0.3774,0.3774,0.3775,0.3776,0.336,0.3356,0.3392,0.3405,0.3428,0.3448,0.3448,0.3482,0.3494,0.3517,0.3547,0.3555,0.3586,0.362,0.3638,0.3644,0.3666,0.3657,0.3655,0.3652,0.3645,0.3734,0.3648,0.3648,0.3649,0.3649,0.3649,0,0.3257,0.3284,0.3296,0.3327,0.3337,0.3375,0.3402,0.3408,0.3415,0.3441,0.3455,0.3469,0.3482,0.3522,0.354,0.3537,0.3555,0.354,0.354,0.3545,0.3624,0.3628,0.3524,0.3524,0.3524,0.3524,0.3525,0.3525,0.3205,0.32,0.3229,0.3236,0.3262,0.3272,0.3284,0.3302,0.3324,0.3337,0.335,0.3376,0.3408,0.3429,0.3443,0.3454,0.3458,0.3436,0.3453,0.3527,0.3539,0.355,0.3554,0.3437,0.3436,0.3373,0.3373,0.3372]}]]